FREGAT DEB, 49271

Orbit data source: Space-Track

FREGAT DEB, 49271 is space debris in LEO originally from a launch on Mon, 18 Jul 2011 UTC launched from the Tyuratam Missile And Space Complex (TTMTR). Debris objects in space refer to the collection of defunct objects orbiting the Earth. Examples of debris include non-operational satellites, rocket bodies, and fragments generated from explosions, collisions, or faulty payload assembly.

Loading next visibility...
Identifier
49271, 2011-037PF
Orbit
LEO
Country
Flag of CISCIS
Related business
Manufacturer
Lavochkin
Mission
Spacecraft
Bus & Motor
Unknown
Mass
Unknown
Launch date (UTC)
2011-07-18 (15 years ago)
Launch vehicle
Unknown
Launch site
Tyuratam Missile And Space Complex (TTMTR)
Object type
Payload
Rocket body
Debris
Shape & HBR
Unknown shape, 0.1 m
Radar Cross Section
Medium (>0.1 m² and <1 m²)

Expand to show TLE details & history
Last TLE update: 18 hours ago

TLE from 18 hours ago
0 FREGAT DEB
1 49271U 11037PF  26254.96744922  .00016685  00000-0  23640-1 0  9999
2 49271  51.6436 100.5439 0940641 115.1330 255.0053 12.44351775235841
Epoch: 2026-09-11T23:13Z
TLE epoch observation values (Epoch: 2026-09-11T23:13:07.612Z)
Latitude
-0.00002°
Longitude
121.27896°
Altitude
1,742.647 km
Speed
6.894 km/s
True Right ascension
06h 42m 10s
True Declination
0° 00' 00"
Sunlit
Object was in daylight at epoch
Visualization orbit readout
Latitude
Unknown
Longitude
Unknown
Altitude
Unknown
Speed
Unknown
Apparent Right ascension
Unknown
Apparent Declination
Unknown
Sunlit
N/A
Visualization observer readout
Local Sidereal Time
10:09:21
Azimuth
Unknown
Elevation
Unknown
Doppler factor
Unknown
Orbital elements
Apogee altitude
2,228.637 km
Perigee altitude
748.672 km
Semi-major axis
7,866.792 km
Eccentricity
0.09406
Inclination
51.6436°
RAAN
100.5439°
Arg. of periapsis
115.133°
True anomaly
244.95272°
Mean anomaly
255.0053°
Eccentric anomaly
249.9427°
Mean motion
3.11062 °/min
Orbital period
115.73 mins
BSTAR
0.02364
Loading maneuver chart data...
Computing Atmospheric mass density...

Documentation

Showing up to 5 results
|